Vancouver, WA
on Wednesday, February 27, 2013

Wednesday
Previous Day Next Day
Daily Summary
 ActualAverageRecord
Temperature
Mean Temperature °F 45°F  
Max Temperature 52°F 54°F 65°F (1949)
Min Temperature 42°F 36°F 19°F (1962)
Degree Days
Heating Degree Days 18    
Month to date heating degree days 595  
Since 1 July heating degree days 3018  
Cooling Degree Days 0    
Month to date cooling degree days 0  
Year to date cooling degree days 0  
Moisture
Dew Point 39°F   
Average Humidity 76    
Maximum Humidity 93    
Minimum Humidity 59    
Precipitation
Precipitation 0.09 in 0.16 in 1.14 in (1976)
Month to date precipitation 0.99 3.87  
Year to date precipitation 4.39 9.37  
Snow
Snow 0.00 in in in ()
Month to date snowfall 0.0  
Snow Depth 0.00 in   
Wind
Wind Speed 5 mph   
Max Wind Speed 9 mph   
Max Gust Speed 13 mph   
Visibility 9 miles   
Events Rain   

Key: T is trace of precipitation, MM is missing value
Source: NWS Daily Summary
Time(PST)TemperatureDew PointHumidity Pressure Visibility Wind DirectionWind SpeedGust SpeedPrecipitationEvents Conditions
12:53 AM 44.1°F 37.0°F 76% 30.28 in 10.0 miles ESE 5.8 mph - N/A   Overcast
1:53 AM 44.1°F 37.0°F 76% 30.28 in 10.0 miles ESE 6.9 mph - N/A   Overcast
2:53 AM 43.0°F 37.0°F 80% 30.28 in 10.0 miles ESE 4.6 mph - N/A   Overcast
3:53 AM 44.1°F 36.0°F 73% 30.28 in 10.0 miles ESE 4.6 mph - N/A   Overcast
4:53 AM 43.0°F 36.0°F 76% 30.28 in 10.0 miles ESE 6.9 mph - N/A   Overcast
5:53 AM 44.1°F 37.0°F 76% 30.30 in 10.0 miles ESE 3.5 mph - N/A   Overcast
6:08 AM 44.6°F 35.6°F 71% 30.30 in 10.0 miles Calm Calm - N/A   Overcast
7:53 AM 44.1°F 37.9°F 79% 30.31 in 10.0 miles ESE 6.9 mph - 0.00 in   Overcast
8:53 AM 45.0°F 37.9°F 76% 30.31 in 10.0 miles ESE 6.9 mph - N/A   Overcast
9:53 AM 46.9°F 39.0°F 74% 30.30 in 10.0 miles East 6.9 mph - 0.00 in   Overcast
10:23 AM 48.2°F 37.4°F 66% 30.30 in 10.0 miles East 5.8 mph - N/A   Overcast
10:53 AM 48.9°F 37.0°F 64% 30.30 in 10.0 miles Variable 3.5 mph - N/A   Overcast
12:53 PM 50.0°F 39.0°F 66% 30.31 in 10.0 miles Variable 4.6 mph - N/A   Overcast
1:53 PM 52.0°F 37.9°F 59% 30.30 in 10.0 miles Variable 4.6 mph - N/A   Overcast
2:53 PM 52.0°F 39.0°F 61% 30.28 in 10.0 miles Calm Calm - N/A   Overcast
3:53 PM 52.0°F 39.0°F 61% 30.28 in 10.0 miles Variable 4.6 mph - N/A   Overcast
4:53 PM 51.1°F 39.9°F 66% 30.28 in 10.0 miles ESE 5.8 mph - N/A   Overcast
5:53 PM 50.0°F 41.0°F 71% 30.27 in 10.0 miles ESE 5.8 mph - 0.00 in Rain Light Rain
6:53 PM 48.9°F 42.1°F 77% 30.26 in 10.0 miles East 4.6 mph - 0.00 in   Overcast
7:53 PM 48.0°F 42.1°F 80% 30.25 in 10.0 miles ESE 5.8 mph - N/A   Overcast
8:53 PM 48.0°F 42.1°F 80% 30.27 in 10.0 miles Calm Calm - N/A   Overcast
9:53 PM 46.9°F 43.0°F 86% 30.28 in 10.0 miles Calm Calm - 0.01 in Rain Light Rain
10:01 PM 46.4°F 42.8°F 87% 30.28 in 7.0 miles Calm Calm - 0.00 in Rain Light Rain
10:53 PM 46.0°F 44.1°F 93% 30.26 in 5.0 miles ESE 5.8 mph - 0.03 in Rain Light Rain
11:49 PM 46.4°F 44.6°F 93% 30.26 in 2.5 miles East 5.8 mph - 0.03 in Rain Light Rain
11:53 PM 46.0°F 44.1°F 93% 30.26 in 2.5 miles ESE 5.8 mph - 0.04 in Rain Light Rain
Moon Phase
Feb. 27 Mar. 04 Mar. 11 Mar. 19 Mar. 27
Sunrise:06:51 AM (PST) Moon Rise:08:33 PM (PST)2/27
Sunset:05:55 PM (PST) Moon Set:07:21 AM (PST)2/27

Copyright © 2014 The Weather Underground, Inc.